When you browse on this site, cookies collect data to enhance your experience and personalize the content and advertising you see.
Visit our Privacy Policy to learn more. By continuing to use the site, you agree to this use of cookies and data.

Hourly Weather Dzhizan

Today, 2 July, Thursday

Time Temperature Precipitation Wind Pressure Humidity
00:00 +34°C° 0 mm 1 mps 751 mmHg 68%
01:00 +34°C° 0 mm 1 mps 750 mmHg 68%
02:00 +34°C° 0 mm 2 mps 750 mmHg 68%
03:00 +33°C° 0 mm 1 mps 749 mmHg 65%
04:00 +34°C° 0 mm 2 mps 750 mmHg 66%
05:00 +34°C° 0 mm 2 mps 750 mmHg 66%
06:00 +34°C° 0 mm 2 mps 750 mmHg 66%
07:00 +35°C° 0 mm 3 mps 751 mmHg 62%
08:00 +36°C° 0 mm 4 mps 751 mmHg 57%
09:00 +38°C° 0 mm 4 mps 751 mmHg 53%
10:00 +38°C° 0 mm 4 mps 751 mmHg 51%
11:00 +40°C° 0 mm 5 mps 751 mmHg 48%
12:00 +40°C° 0 mm 5 mps 751 mmHg 46%
13:00 +40°C° 0 mm 5 mps 751 mmHg 47%
14:00 +40°C° 0 mm 5 mps 750 mmHg 47%
15:00 +40°C° 0 mm 6 mps 750 mmHg 48%
16:00 +39°C° 0 mm 5 mps 750 mmHg 48%
17:00 +38°C° 0 mm 4 mps 750 mmHg 48%
18:00 +37°C° 0 mm 4 mps 751 mmHg 48%
19:00 +36°C° 0 mm 4 mps 751 mmHg 53%
20:00 +35°C° 0 mm 4 mps 751 mmHg 58%
21:00 +34°C° 0 mm 5 mps 751 mmHg 64%
22:00 +34°C° 0 mm 3 mps 751 mmHg 65%
23:00 +34°C° 0 mm 2 mps 751 mmHg 65%

Tomorrow, 3 July, Friday

Time Temperature Precipitation Wind Pressure Humidity
00:00 +33°C° 0 mm 1 mps 751 mmHg 66%
01:00 +33°C° 0 mm 1 mps 751 mmHg 64%
02:00 +34°C° 0 mm 2 mps 750 mmHg 62%
03:00 +34°C° 0 mm 2 mps 750 mmHg 59%
04:00 +34°C° 0 mm 2 mps 750 mmHg 60%
05:00 +34°C° 0 mm 2 mps 751 mmHg 60%
06:00 +32°C° 0 mm 2 mps 751 mmHg 61%
07:00 +35°C° 0 mm 2 mps 752 mmHg 57%
08:00 +36°C° 0 mm 2 mps 752 mmHg 53%
09:00 +37°C° 0 mm 2 mps 752 mmHg 50%
10:00 +38°C° 0 mm 3 mps 752 mmHg 47%
11:00 +39°C° 0 mm 3 mps 752 mmHg 44%
12:00 +41°C° 0 mm 4 mps 752 mmHg 41%
13:00 +41°C° 0 mm 6 mps 751 mmHg 40%
14:00 +41°C° 0 mm 7 mps 751 mmHg 40%
15:00 +41°C° 0 mm 8 mps 751 mmHg 39%
16:00 +40°C° 0 mm 8 mps 751 mmHg 42%
17:00 +39°C° 0 mm 8 mps 751 mmHg 44%
18:00 +38°C° 0 mm 8 mps 752 mmHg 47%
19:00 +38°C° 0 mm 7 mps 752 mmHg 50%
20:00 +36°C° 0 mm 5 mps 752 mmHg 53%
21:00 +35°C° 0 mm 4 mps 752 mmHg 57%
22:00 +35°C° 0 mm 3 mps 752 mmHg 58%
23:00 +35°C° 0 mm 3 mps 752 mmHg 59%

Day after tomorrow, 4 July, Saturday

Time Temperature Precipitation Wind Pressure Humidity
00:00 +35°C° 0 mm 2 mps 751 mmHg 61%
01:00 +34°C° 0 mm 2 mps 751 mmHg 61%
02:00 +34°C° 0 mm 2 mps 751 mmHg 61%
03:00 +33°C° 0 mm 1 mps 751 mmHg 61%
04:00 +33°C° 0 mm 1 mps 751 mmHg 59%
05:00 +34°C° 0 mm 2 mps 751 mmHg 56%
06:00 +34°C° 0 mm 2 mps 752 mmHg 54%
07:00 +35°C° 0 mm 3 mps 752 mmHg 49%
08:00 +37°C° 0 mm 3 mps 752 mmHg 45%
09:00 +38°C° 0 mm 4 mps 752 mmHg 40%
10:00 +40°C° 0 mm 4 mps 752 mmHg 38%
11:00 +40°C° 0 mm 5 mps 752 mmHg 37%
12:00 +41°C° 0 mm 5 mps 752 mmHg 35%
13:00 +40°C° 0 mm 6 mps 751 mmHg 37%
14:00 +40°C° 0 mm 6 mps 751 mmHg 39%
15:00 +39°C° 0 mm 6 mps 751 mmHg 40%
16:00 +39°C° 0 mm 5 mps 751 mmHg 42%
17:00 +37°C° 0 mm 4 mps 751 mmHg 44%
18:00 +37°C° 0 mm 3 mps 751 mmHg 46%
19:00 +36°C° 0 mm 2 mps 752 mmHg 49%
20:00 +36°C° 0 mm 2 mps 752 mmHg 51%
21:00 +34°C° 0 mm 1 mps 752 mmHg 54%
22:00 +34°C° 0 mm 1 mps 752 mmHg 53%
23:00 +34°C° 0 mm 1 mps 752 mmHg 52%

5 July, Sunday

Time Temperature Precipitation Wind Pressure Humidity
00:00 +34°C° 0 mm 1 mps 752 mmHg 50%
01:00 +35°C° 0.1 mm 2 mps 751 mmHg 49%
02:00 +35°C° 0.1 mm 3 mps 751 mmHg 48%
03:00 +35°C° 0.1 mm 4 mps 750 mmHg 47%
04:00 +35°C° 0 mm 3 mps 750 mmHg 49%
05:00 +35°C° 0 mm 2 mps 750 mmHg 51%
06:00 +33°C° 0 mm 1 mps 751 mmHg 54%
07:00 +36°C° 0 mm 2 mps 751 mmHg 50%
08:00 +37°C° 0 mm 2 mps 751 mmHg 46%
09:00 +38°C° 0 mm 3 mps 752 mmHg 42%
10:00 +38°C° 0 mm 4 mps 752 mmHg 42%
11:00 +40°C° 0 mm 5 mps 751 mmHg 41%
12:00 +40°C° 0 mm 6 mps 751 mmHg 41%
13:00 +40°C° 0 mm 6 mps 751 mmHg 42%
14:00 +40°C° 0 mm 6 mps 751 mmHg 43%
15:00 +39°C° 0 mm 6 mps 751 mmHg 45%
16:00 +39°C° 0 mm 5 mps 751 mmHg 48%
17:00 +37°C° 0 mm 5 mps 751 mmHg 52%
18:00 +36°C° 0 mm 5 mps 751 mmHg 56%
19:00 +35°C° 0 mm 4 mps 751 mmHg 59%
20:00 +35°C° 0 mm 4 mps 751 mmHg 63%
21:00 +34°C° 0 mm 3 mps 752 mmHg 66%
22:00 +34°C° 0 mm 3 mps 751 mmHg 66%
23:00 +34°C° 0 mm 3 mps 751 mmHg 67%

6 July, Monday

Time Temperature Precipitation Wind Pressure Humidity
00:00 +32°C° 0 mm 2 mps 751 mmHg 67%
01:00 +32°C° 0 mm 2 mps 751 mmHg 68%
02:00 +32°C° 0 mm 2 mps 751 mmHg 68%
03:00 +32°C° 0 mm 2 mps 751 mmHg 69%
04:00 +33°C° 0 mm 3 mps 751 mmHg 68%
05:00 +33°C° 0 mm 3 mps 751 mmHg 66%
06:00 +33°C° 0 mm 4 mps 752 mmHg 65%
07:00 +34°C° 0 mm 3 mps 752 mmHg 59%
08:00 +35°C° 0 mm 3 mps 753 mmHg 53%
09:00 +37°C° 0 mm 3 mps 753 mmHg 47%
10:00 +37°C° 0 mm 3 mps 753 mmHg 45%
11:00 +38°C° 0 mm 4 mps 752 mmHg 44%
12:00 +40°C° 0 mm 4 mps 752 mmHg 42%
13:00 +40°C° 0 mm 5 mps 752 mmHg 43%
14:00 +39°C° 0 mm 5 mps 751 mmHg 43%
15:00 +39°C° 0 mm 5 mps 751 mmHg 43%
16:00 +37°C° 0 mm 5 mps 751 mmHg 46%
17:00 +37°C° 0 mm 4 mps 751 mmHg 49%
18:00 +36°C° 0 mm 4 mps 751 mmHg 52%
19:00 +35°C° 0 mm 3 mps 751 mmHg 55%
20:00 +35°C° 0 mm 2 mps 752 mmHg 57%
21:00 +33°C° 0 mm 1 mps 753 mmHg 60%
22:00 +33°C° 0 mm 1 mps 752 mmHg 59%
23:00 +33°C° 0 mm 1 mps 752 mmHg 58%

7 July, Tuesday

Time Temperature Precipitation Wind Pressure Humidity
00:00 +34°C° 0 mm 2 mps 752 mmHg 57%
01:00 +34°C° 0 mm 2 mps 751 mmHg 58%
02:00 +34°C° 0 mm 2 mps 751 mmHg 60%
03:00 +32°C° 0 mm 2 mps 751 mmHg 61%
04:00 +32°C° 0 mm 2 mps 751 mmHg 62%
05:00 +32°C° 0 mm 2 mps 752 mmHg 64%
06:00 +32°C° 0 mm 2 mps 752 mmHg 66%
07:00 +34°C° 0 mm 2 mps 752 mmHg 62%
08:00 +35°C° 0 mm 2 mps 753 mmHg 59%
09:00 +36°C° 0 mm 3 mps 753 mmHg 55%
10:00 +37°C° 0 mm 3 mps 753 mmHg 53%
11:00 +37°C° 0 mm 4 mps 753 mmHg 51%
12:00 +39°C° 0 mm 5 mps 752 mmHg 48%
13:00 +39°C° 0 mm 6 mps 752 mmHg 47%
14:00 +39°C° 0 mm 7 mps 752 mmHg 46%
15:00 +39°C° 0 mm 7 mps 751 mmHg 46%
16:00 +39°C° 0 mm 8 mps 751 mmHg 45%
17:00 +39°C° 0 mm 8 mps 751 mmHg 44%
18:00 +38°C° 0 mm 8 mps 751 mmHg 43%
19:00 +38°C° 0 mm 7 mps 752 mmHg 47%
20:00 +37°C° 0 mm 5 mps 752 mmHg 50%
21:00 +36°C° 0 mm 4 mps 752 mmHg 53%
22:00 +36°C° 0 mm 4 mps 752 mmHg 51%
23:00 +36°C° 0 mm 3 mps 752 mmHg 49%
Show more